Tracking 20712 objects as of 30-May-2020
HD Live streaming from Space Station
objects crossing your sky now

WESTFORD NEEDLES

Track WESTFORD NEEDLES now!
10-day predictions
WESTFORD NEEDLES is classified as:


NORAD ID: 20023
Int'l Code: 1963-014EZ
Perigee: 355.3 km
Apogee: 6,182.8 km
Inclination: 83.7 °
Period: 157.0 minutes
Semi major axis: 9640 km
RCS: 0.014 m2 (small)
Launch date: May 9, 1963
Source: United States (US)
Launch site: AIR FORCE WESTERN TEST RANGE (AFWTR)
aabbcc
Your satellite tracking list
Your tracking list is empty




NASA's NSSDC Master Catalog

Two Line Element Set (TLE):
1 20023U 63014EZ  20148.48019556 +.00062348 +00000-0 +82805-2 0  9992
2 20023 083.6957 190.7685 3022583 249.7388 075.6316 09.17241939816487
Source of the keplerian elements: AFSPC